DELTA 1 DEB, 720

Orbit data source: Space-Track

DELTA 1 DEB, 720 is space debris in LEO originally from a launch on Sat, 21 Dec 1963 UTC launched from the Air Force Western Test Range (AFWTR). Debris objects in space refer to the collection of defunct objects orbiting the Earth. Examples of debris include non-operational satellites, rocket bodies, and fragments generated from explosions, collisions, or faulty payload assembly.

Loading next visibility...
Identifier
720, 1963-054C
Orbit
LEO
Country
Flag of USUS
Related business
Manufacturer
Unknown
Mission
Spacecraft
Bus & Motor
Unknown
Mass
~1 kg wet, ~1 kg dry
Launch date (UTC)
1963-12-21 (62 years ago)
Launch vehicle
Unknown
Launch site
Air Force Western Test Range (AFWTR)
Object type
Payload
Rocket body
Debris
Shape & HBR
Unknown
Radar Cross Section
Small (<0.1 m²)

Expand to show TLE details & history
Last TLE update: 1 day ago

TLE from 1 day ago
0 DELTA 1 DEB
1   720U 63054C   25353.27813527  .00000442  00000-0  14580-3 0  9991
2   720  58.4726  53.0673 0105748 188.0462 171.8875 14.50418605255385
Epoch: 2025-12-19T06:40Z
TLE epoch observation values (Epoch: 2025-12-19T06:40:30.887Z)
Latitude
-0.00003°
Longitude
-135.183°
Altitude
800.057 km
Speed
7.415 km/s
True Right ascension
03h 32m 16s
True Declination
0° 00' 00"
Sunlit
Object was in full shadow at epoch
Visualization orbit readout
Latitude
Unknown
Longitude
Unknown
Altitude
Unknown
Speed
Unknown
Apparent Right ascension
Unknown
Apparent Declination
Unknown
Sunlit
N/A
Visualization observer readout
Local Sidereal Time
16:47:37
Azimuth
Unknown
Elevation
Unknown
Doppler factor
Unknown
Orbital elements
Apogee altitude
798.83 km
Perigee altitude
648.628 km
Semi-major axis
7,101.866 km
Eccentricity
0.01057
Inclination
58.4726°
RAAN
53.0673°
Arg. of periapsis
188.0462°
True anomaly
172.05629°
Mean anomaly
171.8875°
Eccentric anomaly
171.97212°
Mean motion
3.62647 °/min
Orbital period
99.27 mins
BSTAR
0.0001458
Loading maneuver chart data...
Computing Atmospheric mass density...
Loading historical data...
Loading historical data...
Loading historical data...
Loading historical data...
Loading historical data...
Loading historical data...
Loading historical data...
Other satellites on launch #54 in the year 1963 (1963-12-21 UTC)

Documentation

Showing up to 5 results
|